Time,TemperatureF,DewpointF,PressureIn,WindDirection,WindDirectionDegrees,WindSpeedMPH,WindSpeedGustMPH,Humidity,HourlyPrecipIn,Conditions,Clouds,dailyrainin,SoftwareType,DateUTC
2013-02-18 00:00:00,18.9,10.4,30.23,SSE,151,2.0,2.0,69,0.00,,,0.00,Wunderground v.1.15,2013-02-18 05:00:00,
2013-02-18 00:05:00,19.0,10.5,30.24,SSE,150,3.0,3.0,69,0.00,,,0.00,Wunderground v.1.15,2013-02-18 05:05:00,
2013-02-18 00:15:00,19.0,10.8,30.23,SSE,152,3.0,4.0,70,0.00,,,0.00,Wunderground v.1.15,2013-02-18 05:15:00,
2013-02-18 00:20:00,19.0,10.8,30.23,SSE,152,3.0,3.0,70,0.00,,,0.00,Wunderground v.1.15,2013-02-18 05:20:00,
2013-02-18 00:25:00,18.9,11.0,30.23,SSE,152,3.0,3.0,71,0.00,,,0.00,Wunderground v.1.15,2013-02-18 05:25:00,
2013-02-18 00:30:00,18.8,10.9,30.23,SSE,152,2.0,3.0,71,0.00,,,0.00,Wunderground v.1.15,2013-02-18 05:30:00,
2013-02-18 00:35:00,18.8,10.9,30.23,SSE,152,2.0,3.0,71,0.00,,,0.00,Wunderground v.1.15,2013-02-18 05:35:00,
2013-02-18 00:40:00,18.7,10.9,30.23,SSE,152,2.0,3.0,71,0.00,,,0.00,Wunderground v.1.15,2013-02-18 05:40:00,
2013-02-18 00:45:00,18.6,11.1,30.23,SSE,152,2.0,3.0,72,0.00,,,0.00,Wunderground v.1.15,2013-02-18 05:45:00,
2013-02-18 00:50:00,18.6,11.1,30.23,SSE,152,2.0,3.0,72,0.00,,,0.00,Wunderground v.1.15,2013-02-18 05:50:00,
2013-02-18 01:00:00,18.6,11.4,30.23,SSE,152,2.0,2.0,73,0.00,,,0.00,Wunderground v.1.15,2013-02-18 06:00:00,
2013-02-18 01:05:00,18.6,11.4,30.23,SSE,152,2.0,2.0,73,0.00,,,0.00,Wunderground v.1.15,2013-02-18 06:05:00,
2013-02-18 01:15:00,18.3,11.4,30.24,SSE,152,1.0,2.0,74,0.00,,,0.00,Wunderground v.1.15,2013-02-18 06:15:00,
2013-02-18 01:20:00,18.1,11.2,30.24,SSE,152,0.0,2.0,74,0.00,,,0.00,Wunderground v.1.15,2013-02-18 06:20:00,
2013-02-18 01:30:00,18.1,11.5,30.23,SSE,153,2.0,2.0,75,0.00,,,0.00,Wunderground v.1.15,2013-02-18 06:30:00,
2013-02-18 01:35:00,18.2,11.3,30.23,SSE,153,2.0,3.0,74,0.00,,,0.00,Wunderground v.1.15,2013-02-18 06:35:00,
2013-02-18 01:40:00,18.4,11.5,30.23,SSE,154,2.0,3.0,74,0.00,,,0.00,Wunderground v.1.15,2013-02-18 06:40:00,
2013-02-18 01:45:00,18.6,12.0,30.23,SSE,154,3.0,3.0,75,0.00,,,0.00,Wunderground v.1.15,2013-02-18 06:45:00,
2013-02-18 01:55:00,18.7,11.5,30.23,SSE,157,3.0,3.0,73,0.00,,,0.00,Wunderground v.1.15,2013-02-18 06:55:00,
2013-02-18 02:00:00,18.6,11.4,30.23,SSE,158,3.0,3.0,73,0.00,,,0.00,Wunderground v.1.15,2013-02-18 07:00:00,
2013-02-18 02:10:00,18.4,11.5,30.22,SSE,158,2.0,2.0,74,0.00,,,0.00,Wunderground v.1.15,2013-02-18 07:10:00,
2013-02-18 02:15:00,18.3,11.4,30.22,SSE,158,2.0,3.0,74,0.00,,,0.00,Wunderground v.1.15,2013-02-18 07:15:00,
2013-02-18 02:20:00,18.2,11.3,30.22,SSE,158,2.0,3.0,74,0.00,,,0.00,Wunderground v.1.15,2013-02-18 07:20:00,
2013-02-18 02:30:00,18.3,11.4,30.23,SSE,161,2.0,2.0,74,0.00,,,0.00,Wunderground v.1.15,2013-02-18 07:30:00,
2013-02-18 02:35:00,18.3,11.7,30.23,SSE,161,2.0,3.0,75,0.00,,,0.00,Wunderground v.1.15,2013-02-18 07:35:00,
2013-02-18 02:40:00,18.5,11.9,30.23,SSE,161,2.0,4.0,75,0.00,,,0.00,Wunderground v.1.15,2013-02-18 07:40:00,
2013-02-18 02:45:00,18.4,11.8,30.23,SSE,161,2.0,4.0,75,0.00,,,0.00,Wunderground v.1.15,2013-02-18 07:45:00,
2013-02-18 02:55:00,18.4,11.8,30.23,SSE,161,2.0,3.0,75,0.00,,,0.00,Wunderground v.1.15,2013-02-18 07:55:00,
2013-02-18 03:05:00,18.8,12.2,30.22,SSE,163,3.0,3.0,75,0.00,,,0.00,Wunderground v.1.15,2013-02-18 08:05:00,
2013-02-18 03:15:00,18.9,12.0,30.22,SSE,161,3.0,3.0,74,0.00,,,0.00,Wunderground v.1.15,2013-02-18 08:15:00,
2013-02-18 03:20:00,18.8,12.2,30.22,SSE,161,3.0,3.0,75,0.00,,,0.00,Wunderground v.1.15,2013-02-18 08:20:00,
2013-02-18 03:30:00,18.9,12.6,30.22,SSE,163,3.0,4.0,76,0.00,,,0.00,Wunderground v.1.15,2013-02-18 08:30:00,
2013-02-18 03:35:00,19.0,12.4,30.21,SSE,167,3.0,4.0,75,0.00,,,0.00,Wunderground v.1.15,2013-02-18 08:35:00,
2013-02-18 03:40:00,19.3,12.7,30.21,SSE,165,3.0,5.0,75,0.00,,,0.00,Wunderground v.1.15,2013-02-18 08:40:00,
2013-02-18 03:45:00,19.6,12.7,30.21,SSE,158,4.0,5.0,74,0.00,,,0.00,Wunderground v.1.15,2013-02-18 08:45:00,
2013-02-18 03:55:00,20.2,12.6,30.21,South,178,6.0,9.0,72,0.00,,,0.00,Wunderground v.1.15,2013-02-18 08:55:00,
2013-02-18 04:00:00,20.5,12.9,30.21,South,178,7.0,7.0,72,0.00,,,0.00,Wunderground v.1.15,2013-02-18 09:00:00,
2013-02-18 04:05:00,20.6,13.0,30.21,South,175,7.0,7.0,72,0.00,,,0.00,Wunderground v.1.15,2013-02-18 09:05:00,
2013-02-18 04:15:00,20.5,12.9,30.20,SSE,166,6.0,6.0,72,0.00,,,0.00,Wunderground v.1.15,2013-02-18 09:15:00,
2013-02-18 04:20:00,20.4,12.8,30.20,SSE,166,5.0,5.0,72,0.00,,,0.00,Wunderground v.1.15,2013-02-18 09:20:00,
2013-02-18 04:25:00,20.4,12.5,30.20,South,182,5.0,8.0,71,0.00,,,0.00,Wunderground v.1.15,2013-02-18 09:25:00,
2013-02-18 04:35:00,20.5,12.6,30.20,South,169,6.0,7.0,71,0.00,,,0.00,Wunderground v.1.15,2013-02-18 09:35:00,
2013-02-18 04:40:00,20.7,12.8,30.19,SSE,166,7.0,7.0,71,0.00,,,0.00,Wunderground v.1.15,2013-02-18 09:40:00,
2013-02-18 04:45:00,20.7,12.8,30.19,South,176,7.0,8.0,71,0.00,,,0.00,Wunderground v.1.15,2013-02-18 09:45:00,
2013-02-18 04:55:00,20.6,12.4,30.18,South,169,7.0,7.0,70,0.00,,,0.00,Wunderground v.1.15,2013-02-18 09:55:00,
2013-02-18 05:00:00,20.5,12.3,30.18,SSE,148,7.0,8.0,70,0.00,,,0.00,Wunderground v.1.15,2013-02-18 10:00:00,
2013-02-18 05:05:00,20.5,12.3,30.18,SSE,160,7.0,8.0,70,0.00,,,0.00,Wunderground v.1.15,2013-02-18 10:05:00,
2013-02-18 05:15:00,20.3,12.1,30.17,SSE,161,6.0,11.0,70,0.00,,,0.00,Wunderground v.1.15,2013-02-18 10:15:00,
2013-02-18 05:20:00,20.3,12.1,30.17,SSE,151,6.0,9.0,70,0.00,,,0.00,Wunderground v.1.15,2013-02-18 10:20:00,
2013-02-18 05:25:00,20.2,12.0,30.17,SSE,161,6.0,9.0,70,0.00,,,0.00,Wunderground v.1.15,2013-02-18 10:25:00,
2013-02-18 05:35:00,20.1,12.2,30.17,SSE,161,6.0,8.0,71,0.00,,,0.00,Wunderground v.1.15,2013-02-18 10:35:00,
2013-02-18 05:40:00,20.1,12.2,30.17,SSE,153,7.0,7.0,71,0.00,,,0.00,Wunderground v.1.15,2013-02-18 10:40:00,
2013-02-18 05:50:00,19.9,12.0,30.16,SE,134,5.0,5.0,71,0.00,,,0.00,Wunderground v.1.15,2013-02-18 10:50:00,
2013-02-18 05:55:00,19.9,12.3,30.16,SE,145,5.0,6.0,72,0.00,,,0.00,Wunderground v.1.15,2013-02-18 10:55:00,
2013-02-18 06:00:00,20.1,12.5,30.16,SSE,155,5.0,5.0,72,0.00,,,0.00,Wunderground v.1.15,2013-02-18 11:00:00,
2013-02-18 06:05:00,20.3,12.7,30.15,SSE,155,5.0,7.0,72,0.00,,,0.00,Wunderground v.1.15,2013-02-18 11:05:00,
2013-02-18 06:15:00,20.6,13.0,30.16,SSE,163,6.0,6.0,72,0.00,,,0.00,Wunderground v.1.15,2013-02-18 11:15:00,
2013-02-18 06:25:00,20.8,13.2,30.16,SSE,167,7.0,8.0,72,0.00,,,0.00,Wunderground v.1.15,2013-02-18 11:25:00,
2013-02-18 06:30:00,20.8,12.9,30.15,South,171,7.0,8.0,71,0.00,,,0.00,Wunderground v.1.15,2013-02-18 11:30:00,
2013-02-18 06:35:00,20.9,13.0,30.15,SSE,165,6.0,8.0,71,0.00,,,0.00,Wunderground v.1.15,2013-02-18 11:35:00,
2013-02-18 06:45:00,21.1,13.2,30.15,South,169,6.0,10.0,71,0.00,,,0.00,Wunderground v.1.15,2013-02-18 11:45:00,
2013-02-18 06:50:00,21.3,13.0,30.14,SSE,165,7.0,7.0,70,0.00,,,0.00,Wunderground v.1.15,2013-02-18 11:50:00,
2013-02-18 07:00:00,21.5,13.2,30.14,South,169,7.0,7.0,70,0.00,,,0.00,Wunderground v.1.15,2013-02-18 12:00:00,
2013-02-18 07:05:00,21.6,13.3,30.13,South,169,8.0,8.0,70,0.00,,,0.00,Wunderground v.1.15,2013-02-18 12:05:00,
2013-02-18 07:15:00,21.9,13.6,30.13,South,169,8.0,8.0,70,0.00,,,0.00,Wunderground v.1.15,2013-02-18 12:15:00,
2013-02-18 07:25:00,22.1,13.8,30.13,SSE,167,7.0,7.0,70,0.00,,,0.00,Wunderground v.1.15,2013-02-18 12:25:00,
2013-02-18 07:30:00,22.2,13.6,30.13,SSE,165,7.0,7.0,69,0.00,,,0.00,Wunderground v.1.15,2013-02-18 12:30:00,
2013-02-18 07:40:00,22.4,13.8,30.13,South,171,8.0,9.0,69,0.00,,,0.00,Wunderground v.1.15,2013-02-18 12:40:00,
2013-02-18 07:50:00,22.7,14.1,30.12,SE,146,7.0,8.0,69,0.00,,,0.00,Wunderground v.1.15,2013-02-18 12:50:00,
2013-02-18 08:00:00,22.9,13.9,30.12,SSE,151,8.0,10.0,68,0.00,,,0.00,Wunderground v.1.15,2013-02-18 13:00:00,
2013-02-18 08:05:00,23.0,13.7,30.11,SSE,148,7.0,10.0,67,0.00,,,0.00,Wunderground v.1.15,2013-02-18 13:05:00,
2013-02-18 08:15:00,22.9,13.9,30.11,SSE,150,7.0,7.0,68,0.00,,,0.00,Wunderground v.1.15,2013-02-18 13:15:00,
2013-02-18 08:20:00,23.0,13.7,30.11,SSE,156,6.0,6.0,67,0.00,,,0.00,Wunderground v.1.15,2013-02-18 13:20:00,
2013-02-18 08:30:00,23.8,14.1,30.10,South,173,7.0,9.0,66,0.00,,,0.00,Wunderground v.1.15,2013-02-18 13:30:00,
2013-02-18 08:40:00,24.7,14.6,30.09,South,171,9.0,9.0,65,0.00,,,0.00,Wunderground v.1.15,2013-02-18 13:40:00,
2013-02-18 08:45:00,25.0,14.5,30.09,SE,140,10.0,10.0,64,0.00,,,0.00,Wunderground v.1.15,2013-02-18 13:45:00,
2013-02-18 08:50:00,25.4,14.5,30.09,SSE,162,10.0,12.0,63,0.00,,,0.00,Wunderground v.1.15,2013-02-18 13:50:00,
2013-02-18 09:00:00,26.3,14.7,30.09,SSE,163,10.0,10.0,61,0.00,,,0.00,Wunderground v.1.15,2013-02-18 14:00:00,
2013-02-18 09:05:00,26.6,14.9,30.09,SSE,150,10.0,16.0,61,0.00,,,0.00,Wunderground v.1.15,2013-02-18 14:05:00,
2013-02-18 09:15:00,26.7,15.0,30.08,SE,138,10.0,14.0,61,0.00,,,0.00,Wunderground v.1.15,2013-02-18 14:15:00,
2013-02-18 09:25:00,27.8,15.3,30.07,SSE,162,10.0,15.0,59,0.00,,,0.00,Wunderground v.1.15,2013-02-18 14:25:00,
2013-02-18 09:30:00,28.2,15.3,30.07,SSE,149,11.0,11.0,58,0.00,,,0.00,Wunderground v.1.15,2013-02-18 14:30:00,
2013-02-18 09:35:00,28.5,15.6,30.06,South,177,11.0,15.0,58,0.00,,,0.00,Wunderground v.1.15,2013-02-18 14:35:00,
2013-02-18 09:45:00,28.9,15.6,30.05,SSE,165,11.0,12.0,57,0.00,,,0.00,Wunderground v.1.15,2013-02-18 14:45:00,
2013-02-18 09:50:00,28.9,16.0,30.05,South,184,11.0,11.0,58,0.00,,,0.00,Wunderground v.1.15,2013-02-18 14:50:00,
2013-02-18 09:55:00,29.4,16.4,30.05,SSE,163,11.0,11.0,58,0.00,,,0.00,Wunderground v.1.15,2013-02-18 14:55:00,
2013-02-18 10:05:00,30.2,16.4,30.04,South,170,11.0,13.0,56,0.00,,,0.00,Wunderground v.1.15,2013-02-18 15:05:00,
2013-02-18 10:15:00,30.8,16.5,30.04,SE,136,12.0,12.0,55,0.00,,,0.00,Wunderground v.1.15,2013-02-18 15:15:00,
2013-02-18 10:20:00,31.2,16.9,30.03,SE,144,11.0,11.0,55,0.00,,,0.00,Wunderground v.1.15,2013-02-18 15:20:00,
2013-02-18 10:30:00,32.0,17.6,30.03,South,175,11.0,12.0,55,0.00,,,0.00,Wunderground v.1.15,2013-02-18 15:30:00,
2013-02-18 10:35:00,32.1,17.3,30.03,SSE,159,11.0,12.0,54,0.00,,,0.00,Wunderground v.1.15,2013-02-18 15:35:00,
2013-02-18 10:40:00,32.6,17.8,30.03,South,173,11.0,11.0,54,0.00,,,0.00,Wunderground v.1.15,2013-02-18 15:40:00,
2013-02-18 10:55:00,33.2,18.8,30.02,South,177,11.0,11.0,55,0.00,,,0.00,Wunderground v.1.15,2013-02-18 15:55:00,
2013-02-18 11:05:00,34.1,18.3,30.02,South,185,11.0,14.0,52,0.00,,,0.00,Wunderground v.1.15,2013-02-18 16:05:00,
2013-02-18 11:10:00,34.6,18.8,30.01,SSE,153,11.0,11.0,52,0.00,,,0.00,Wunderground v.1.15,2013-02-18 16:10:00,
2013-02-18 11:20:00,35.0,19.1,30.01,SSE,148,12.0,15.0,52,0.00,,,0.00,Wunderground v.1.15,2013-02-18 16:20:00,
2013-02-18 11:25:00,34.9,19.0,30.01,South,176,13.0,15.0,52,0.00,,,0.00,Wunderground v.1.15,2013-02-18 16:25:00,
2013-02-18 11:35:00,35.5,19.6,30.00,South,174,11.0,12.0,52,0.00,,,0.00,Wunderground v.1.15,2013-02-18 16:35:00,
2013-02-18 11:40:00,36.0,20.1,30.00,SSE,161,11.0,11.0,52,0.00,,,0.00,Wunderground v.1.15,2013-02-18 16:40:00,
2013-02-18 11:45:00,36.7,20.7,30.00,South,185,11.0,11.0,52,0.00,,,0.00,Wunderground v.1.15,2013-02-18 16:45:00,
2013-02-18 11:55:00,36.8,21.3,29.99,SSW,201,13.0,16.0,53,0.00,,,0.00,Wunderground v.1.15,2013-02-18 16:55:00,
2013-02-18 12:00:00,37.0,21.4,29.98,South,180,14.0,14.0,53,0.00,,,0.00,Wunderground v.1.15,2013-02-18 17:00:00,
2013-02-18 12:05:00,37.1,21.1,29.98,SSW,194,13.0,14.0,52,0.00,,,0.00,Wunderground v.1.15,2013-02-18 17:05:00,
2013-02-18 12:15:00,37.0,21.4,29.98,South,188,15.0,18.0,53,0.00,,,0.00,Wunderground v.1.15,2013-02-18 17:15:00,
2013-02-18 12:20:00,37.5,21.9,29.98,South,185,13.0,13.0,53,0.00,,,0.00,Wunderground v.1.15,2013-02-18 17:20:00,
2013-02-18 12:30:00,37.9,22.3,29.97,South,172,14.0,14.0,53,0.00,,,0.00,Wunderground v.1.15,2013-02-18 17:30:00,
2013-02-18 12:40:00,39.3,23.6,29.96,SSE,164,12.0,15.0,53,0.00,,,0.00,Wunderground v.1.15,2013-02-18 17:40:00,
2013-02-18 12:45:00,39.5,23.8,29.96,South,179,14.0,15.0,53,0.00,,,0.00,Wunderground v.1.15,2013-02-18 17:45:00,
2013-02-18 12:55:00,39.3,23.6,29.95,SSE,155,14.0,16.0,53,0.00,,,0.00,Wunderground v.1.15,2013-02-18 17:55:00,
2013-02-18 13:00:00,39.6,24.7,29.94,South,183,14.0,15.0,55,0.00,,,0.00,Wunderground v.1.15,2013-02-18 18:00:00,
2013-02-18 13:05:00,40.2,24.9,29.94,South,175,14.0,15.0,54,0.00,,,0.00,Wunderground v.1.15,2013-02-18 18:05:00,
2013-02-18 13:15:00,40.7,24.9,29.93,SSW,207,14.0,16.0,53,0.00,,,0.00,Wunderground v.1.15,2013-02-18 18:15:00,
2013-02-18 13:20:00,40.6,25.2,29.92,South,171,14.0,19.0,54,0.00,,,0.00,Wunderground v.1.15,2013-02-18 18:20:00,
2013-02-18 13:29:00,40.8,25.4,29.92,SSW,193,15.0,17.0,54,0.00,,,0.00,Wunderground v.1.15,2013-02-18 18:29:00,
2013-02-18 13:34:00,40.4,25.5,29.91,South,182,14.0,17.0,55,0.00,,,0.00,Wunderground v.1.15,2013-02-18 18:34:00,
2013-02-18 13:44:00,41.8,26.8,29.91,South,186,12.0,14.0,55,0.00,,,0.00,Wunderground v.1.15,2013-02-18 18:44:00,
2013-02-18 13:49:00,42.4,26.9,29.91,SSE,168,12.0,18.0,54,0.00,,,0.00,Wunderground v.1.15,2013-02-18 18:49:00,
2013-02-18 13:59:00,42.6,27.1,29.91,SSW,204,12.0,12.0,54,0.00,,,0.00,Wunderground v.1.15,2013-02-18 18:59:00,
2013-02-18 14:04:00,43.3,28.2,29.90,SSW,206,12.0,14.0,55,0.00,,,0.00,Wunderground v.1.15,2013-02-18 19:04:00,
2013-02-18 14:14:00,43.6,28.0,29.90,South,175,14.0,15.0,54,0.00,,,0.00,Wunderground v.1.15,2013-02-18 19:14:00,
2013-02-18 14:19:00,43.5,27.9,29.90,SSW,195,15.0,15.0,54,0.00,,,0.00,Wunderground v.1.15,2013-02-18 19:19:00,
2013-02-18 14:29:00,44.2,28.6,29.89,South,182,12.0,12.0,54,0.00,,,0.00,Wunderground v.1.15,2013-02-18 19:29:00,
2013-02-18 14:34:00,44.2,29.0,29.89,South,174,12.0,12.0,55,0.00,,,0.00,Wunderground v.1.15,2013-02-18 19:34:00,
2013-02-18 14:44:00,45.1,29.9,29.88,SSE,159,10.0,11.0,55,0.00,,,0.00,Wunderground v.1.15,2013-02-18 19:44:00,
2013-02-18 14:54:00,46.1,30.8,29.87,SSE,167,9.0,9.0,55,0.00,,,0.00,Wunderground v.1.15,2013-02-18 19:54:00,
2013-02-18 14:59:00,46.1,30.4,29.87,South,180,11.0,11.0,54,0.00,,,0.00,Wunderground v.1.15,2013-02-18 19:59:00,
2013-02-18 15:04:00,46.1,30.4,29.87,SSW,199,12.0,14.0,54,0.00,,,0.00,Wunderground v.1.15,2013-02-18 20:04:00,
2013-02-18 15:14:00,46.2,30.9,29.87,South,185,13.0,13.0,55,0.00,,,0.00,Wunderground v.1.15,2013-02-18 20:14:00,
2013-02-18 15:19:00,46.1,30.8,29.87,SSW,194,12.0,12.0,55,0.00,,,0.00,Wunderground v.1.15,2013-02-18 20:19:00,
2013-02-18 15:24:00,45.9,31.1,29.86,SSW,195,12.0,12.0,56,0.00,,,0.00,Wunderground v.1.15,2013-02-18 20:24:00,
2013-02-18 15:34:00,46.2,31.4,29.86,South,181,11.0,12.0,56,0.00,,,0.00,Wunderground v.1.15,2013-02-18 20:34:00,
2013-02-18 15:39:00,46.2,31.4,29.86,South,173,10.0,11.0,56,0.00,,,0.00,Wunderground v.1.15,2013-02-18 20:39:00,
2013-02-18 15:44:00,46.1,31.7,29.85,South,181,11.0,13.0,57,0.00,,,0.00,Wunderground v.1.15,2013-02-18 20:44:00,
2013-02-18 15:54:00,46.0,32.0,29.85,South,173,12.0,12.0,58,0.00,,,0.00,Wunderground v.1.15,2013-02-18 20:54:00,
2013-02-18 16:04:00,46.6,33.0,29.84,SSE,163,11.0,12.0,59,0.00,,,0.00,Wunderground v.1.15,2013-02-18 21:04:00,
2013-02-18 16:14:00,47.2,33.2,29.83,South,179,8.0,11.0,58,0.00,,,0.00,Wunderground v.1.15,2013-02-18 21:14:00,
2013-02-18 16:19:00,47.2,33.2,29.83,South,172,8.0,10.0,58,0.00,,,0.00,Wunderground v.1.15,2013-02-18 21:19:00,
2013-02-18 16:29:00,47.3,33.3,29.82,SSE,160,10.0,10.0,58,0.00,,,0.00,Wunderground v.1.15,2013-02-18 21:29:00,
2013-02-18 16:34:00,47.2,33.6,29.82,SSE,163,11.0,11.0,59,0.00,,,0.00,Wunderground v.1.15,2013-02-18 21:34:00,
2013-02-18 16:44:00,47.4,34.2,29.81,South,175,10.0,18.0,60,0.00,,,0.00,Wunderground v.1.15,2013-02-18 21:44:00,
2013-02-18 16:54:00,47.3,34.1,29.81,SSE,159,11.0,14.0,60,0.00,,,0.00,Wunderground v.1.15,2013-02-18 21:54:00,
2013-02-18 16:59:00,47.2,34.4,29.81,South,170,11.0,11.0,61,0.00,,,0.00,Wunderground v.1.15,2013-02-18 21:59:00,
2013-02-18 17:04:00,47.2,34.4,29.81,South,172,12.0,12.0,61,0.00,,,0.00,Wunderground v.1.15,2013-02-18 22:04:00,
2013-02-18 17:14:00,47.4,34.6,29.80,SSW,192,12.0,13.0,61,0.00,,,0.00,Wunderground v.1.15,2013-02-18 22:14:00,
2013-02-18 17:19:00,47.8,35.0,29.80,South,175,12.0,12.0,61,0.00,,,0.00,Wunderground v.1.15,2013-02-18 22:19:00,
2013-02-18 17:34:00,47.9,34.7,29.79,SSE,166,13.0,17.0,60,0.00,,,0.00,Wunderground v.1.15,2013-02-18 22:34:00,
2013-02-18 17:39:00,47.7,34.9,29.79,South,182,12.0,18.0,61,0.00,,,0.00,Wunderground v.1.15,2013-02-18 22:39:00,
2013-02-18 17:44:00,47.7,34.9,29.79,SSE,165,12.0,18.0,61,0.00,,,0.00,Wunderground v.1.15,2013-02-18 22:44:00,
2013-02-18 17:54:00,47.8,35.0,29.79,South,173,12.0,13.0,61,0.00,,,0.00,Wunderground v.1.15,2013-02-18 22:54:00,
2013-02-18 18:04:00,47.7,34.9,29.78,SSE,155,12.0,13.0,61,0.00,,,0.00,Wunderground v.1.15,2013-02-18 23:04:00,
2013-02-18 18:14:00,47.6,34.8,29.78,South,175,10.0,11.0,61,0.00,,,0.00,Wunderground v.1.15,2013-02-18 23:14:00,
2013-02-18 18:24:00,47.0,34.6,29.78,South,180,7.0,12.0,62,0.00,,,0.00,Wunderground v.1.15,2013-02-18 23:24:00,
2013-02-18 18:29:00,46.9,34.6,29.79,SSE,167,8.0,8.0,62,0.00,,,0.00,Wunderground v.1.15,2013-02-18 23:29:00,
2013-02-18 18:39:00,46.7,35.2,29.78,SSE,160,7.0,7.0,64,0.00,,,0.00,Wunderground v.1.15,2013-02-18 23:39:00,
2013-02-18 18:44:00,46.5,35.0,29.78,SSE,157,8.0,8.0,64,0.00,,,0.00,Wunderground v.1.15,2013-02-18 23:44:00,
2013-02-18 18:49:00,46.4,35.3,29.78,South,169,7.0,9.0,65,0.00,,,0.00,Wunderground v.1.15,2013-02-18 23:49:00,
2013-02-18 18:59:00,46.1,35.4,29.78,SE,140,6.0,6.0,66,0.00,,,0.00,Wunderground v.1.15,2013-02-18 23:59:00,
2013-02-18 19:05:00,45.8,35.1,29.78,South,169,7.0,11.0,66,0.00,,,0.00,Wunderground v.1.15,2013-02-19 00:05:00,
2013-02-18 19:14:00,45.5,34.4,29.78,SSE,167,8.0,9.0,65,0.00,,,0.00,Wunderground v.1.15,2013-02-19 00:14:00,
2013-02-18 19:24:00,45.3,33.8,29.77,South,173,10.0,10.0,64,0.00,,,0.00,Wunderground v.1.15,2013-02-19 00:24:00,
2013-02-18 19:34:00,45.3,33.4,29.77,South,180,10.0,14.0,63,0.00,,,0.00,Wunderground v.1.15,2013-02-19 00:34:00,
2013-02-18 19:44:00,45.5,33.6,29.76,South,176,10.0,10.0,63,0.00,,,0.00,Wunderground v.1.15,2013-02-19 00:44:00,
2013-02-18 19:54:00,45.6,33.7,29.76,South,178,9.0,16.0,63,0.00,,,0.00,Wunderground v.1.15,2013-02-19 00:54:00,
2013-02-18 20:04:00,45.9,33.6,29.75,SSE,148,10.0,10.0,62,0.00,,,0.00,Wunderground v.1.15,2013-02-19 01:04:00,
2013-02-18 20:14:00,46.1,33.8,29.75,SE,143,10.0,13.0,62,0.00,,,0.00,Wunderground v.1.15,2013-02-19 01:14:00,
2013-02-18 20:24:00,46.4,33.7,29.74,South,186,12.0,12.0,61,0.00,,,0.00,Wunderground v.1.15,2013-02-19 01:24:00,
2013-02-18 20:34:00,46.5,33.4,29.73,South,172,13.0,15.0,60,0.00,,,0.00,Wunderground v.1.15,2013-02-19 01:34:00,
2013-02-18 20:44:00,46.6,33.4,29.72,South,183,13.0,15.0,60,0.00,,,0.00,Wunderground v.1.15,2013-02-19 01:44:00,
2013-02-18 20:54:00,46.9,33.7,29.71,South,182,13.0,14.0,60,0.00,,,0.00,Wunderground v.1.15,2013-02-19 01:54:00,
2013-02-18 20:59:00,47.0,34.2,29.71,South,171,14.0,14.0,61,0.00,,,0.00,Wunderground v.1.15,2013-02-19 01:59:00,
2013-02-18 21:04:00,47.0,34.2,29.70,South,188,13.0,16.0,61,0.00,,,0.00,Wunderground v.1.15,2013-02-19 02:04:00,
2013-02-18 21:14:00,47.3,34.5,29.70,SSW,204,13.0,13.0,61,0.00,,,0.00,Wunderground v.1.15,2013-02-19 02:14:00,
2013-02-18 21:19:00,47.5,34.7,29.69,South,179,13.0,13.0,61,0.00,,,0.00,Wunderground v.1.15,2013-02-19 02:19:00,
2013-02-18 21:24:00,47.5,34.7,29.70,South,170,13.0,17.0,61,0.00,,,0.00,Wunderground v.1.15,2013-02-19 02:24:00,
2013-02-18 21:29:00,47.7,34.9,29.70,South,188,14.0,16.0,61,0.00,,,0.00,Wunderground v.1.15,2013-02-19 02:29:00,
2013-02-18 21:39:00,47.8,35.0,29.69,South,175,16.0,16.0,61,0.00,,,0.00,Wunderground v.1.15,2013-02-19 02:39:00,
2013-02-18 21:49:00,47.7,34.9,29.69,South,184,16.0,19.0,61,0.00,,,0.00,Wunderground v.1.15,2013-02-19 02:49:00,
2013-02-18 21:54:00,47.6,35.2,29.70,South,176,16.0,19.0,62,0.00,,,0.00,Wunderground v.1.15,2013-02-19 02:54:00,
2013-02-18 22:04:00,47.6,35.2,29.69,South,182,16.0,19.0,62,0.00,,,0.00,Wunderground v.1.15,2013-02-19 03:04:00,
2013-02-18 22:14:00,47.2,35.2,29.67,SSE,165,13.0,15.0,63,0.00,,,0.00,Wunderground v.1.15,2013-02-19 03:14:00,
2013-02-18 22:24:00,46.7,35.2,29.67,South,190,12.0,12.0,64,0.00,,,0.00,Wunderground v.1.15,2013-02-19 03:24:00,
2013-02-18 22:34:00,46.3,35.2,29.66,South,180,11.0,13.0,65,0.00,,,0.00,Wunderground v.1.15,2013-02-19 03:34:00,
2013-02-18 22:39:00,46.2,35.1,29.66,South,185,12.0,14.0,65,0.00,,,0.00,Wunderground v.1.15,2013-02-19 03:39:00,
2013-02-18 22:44:00,46.2,35.5,29.66,South,170,11.0,14.0,66,0.00,,,0.00,Wunderground v.1.15,2013-02-19 03:44:00,
2013-02-18 22:54:00,46.0,35.3,29.65,South,175,10.0,11.0,66,0.00,,,0.00,Wunderground v.1.15,2013-02-19 03:54:00,
2013-02-18 22:59:00,46.0,35.7,29.65,South,186,8.0,15.0,67,0.00,,,0.00,Wunderground v.1.15,2013-02-19 03:59:00,
2013-02-18 23:04:00,46.5,35.4,29.65,South,189,10.0,16.0,65,0.00,,,0.00,Wunderground v.1.15,2013-02-19 04:04:00,
2013-02-18 23:14:00,46.9,35.4,29.64,South,180,13.0,13.0,64,0.00,,,0.00,Wunderground v.1.15,2013-02-19 04:14:00,
2013-02-18 23:19:00,46.7,35.2,29.64,SSE,166,11.0,11.0,64,0.00,,,0.00,Wunderground v.1.15,2013-02-19 04:19:00,
2013-02-18 23:24:00,46.9,35.4,29.63,South,177,10.0,12.0,64,0.00,,,0.00,Wunderground v.1.15,2013-02-19 04:24:00,
2013-02-18 23:34:00,47.0,35.0,29.63,South,178,13.0,13.0,63,0.00,,,0.00,Wunderground v.1.15,2013-02-19 04:34:00,
2013-02-18 23:44:00,47.2,35.2,29.62,South,187,13.0,13.0,63,0.00,,,0.00,Wunderground v.1.15,2013-02-19 04:44:00,
2013-02-18 23:54:00,46.9,35.0,29.62,South,182,15.0,17.0,63,0.00,,,0.00,Wunderground v.1.15,2013-02-19 04:54:00,
2013-02-18 23:59:00,46.8,34.9,29.61,South,171,14.0,14.0,63,0.00,,,0.00,Wunderground v.1.15,2013-02-19 04:59:00,